Waarnemingen

Advertentie
Mijn weer
Bournemouth Airport, Groot Brittannië (3862): temperatuur & dauwpunt: 12.01.2020 10:00:00 - 18.01.2020 10:00:00 (GMT)Bournemouth Airport, Groot Brittannië (3862): temperatuur -20cm & temperatuur -100cm: 12.01.2020 10:00:00 - 18.01.2020 10:00:00 (GMT)Bournemouth Airport, Groot Brittannië (3862): windsnelheid & windstoten: 12.01.2020 10:00:00 - 18.01.2020 10:00:00 (GMT)Bournemouth Airport, Groot Brittannië (3862): windrichting: 12.01.2020 10:00:00 - 18.01.2020 10:00:00 (GMT)Bournemouth Airport, Groot Brittannië (3862): luchtdruk: 12.01.2020 10:00:00 - 18.01.2020 10:00:00 (GMT)Bournemouth Airport, Groot Brittannië (3862): zicht: 12.01.2020 10:00:00 - 18.01.2020 10:00:00 (GMT)Bournemouth Airport, Groot Brittannië (3862): Zonneschijnduur: 12.01.2020 10:00:00 - 18.01.2020 10:00:00 (GMT)Bournemouth Airport, Groot Brittannië (3862): neerslag: 12.01.2020 10:00:00 - 18.01.2020 10:00:00 (GMT)
Datum & Tijd tt [°C] td [°C] tt -20cm [°C] tt -100cm [°C] ff [km/u] ff [kn] fx [km/u] fx [kn] dd ppp [hPa] vv [km] sd [min] rr [mm]
18.01.2020 10:00:00 - - - - - - - - - - - - -
18.01.2020 09:00:00 -2,1 -2,3 7,7 8,7 2 1 - - ONO 1027,4 0,4 0 0,0
18.01.2020 08:00:00 -2,3 -2,6 - - 4 2 - - N 1027,0 0,8 0 0,0
18.01.2020 07:00:00 -2,1 -2,4 - - 4 2 - - N 1026,4 0,7 0 0,0
18.01.2020 06:00:00 -2,6 -3,1 - - 4 2 - - N 1025,9 0,6 0 0,0
18.01.2020 05:00:00 -0,9 -1,4 - - 0 0 - - N 1025,0 0,5 0 0,0
18.01.2020 04:00:00 0,4 -0,2 - - 2 1 - - WZW 1024,4 27 0 0,0
18.01.2020 03:00:00 0,0 -0,8 - - 9 5 - - WNW 1024,1 30 0 0,0
18.01.2020 02:00:00 1,2 0,4 - - 15 8 - - W 1023,4 35 0 0,0
18.01.2020 01:00:00 1,4 0,5 - - 8 4 - - W 1022,6 35 0 0,0
18.01.2020 00:00:00 1,2 0,4 - - 8 4 - - W 1022,0 35 - 0,0
17.01.2020 23:00:00 1,5 0,2 - - 11 6 - - W 1021,2 40 0 0,0
17.01.2020 22:00:00 2,3 0,3 - - 9 5 - - W 1020,4 45 0 0,0
17.01.2020 21:00:00 3,5 1,8 - - 18 10 - - W 1019,5 10 0 0,0
17.01.2020 20:00:00 2,1 0,1 - - 11 6 - - W 1018,9 30 0 0,0
17.01.2020 19:00:00 3,5 1,3 - - 9 5 - - W 1018,5 10 0 0,0
17.01.2020 18:00:00 4,3 2,0 - - 11 6 - - WZW 1018,1 35 0 0,0
17.01.2020 17:00:00 4,1 2,4 - - 5 3 - - WZW 1017,6 10 0 0,6
17.01.2020 16:00:00 6,5 2,7 - - 15 8 - - W 1016,9 10 42 0,0
17.01.2020 15:00:00 7,5 2,3 - - 24 13 - - W 1016,3 10 30 0,2
17.01.2020 14:00:00 8,2 3,4 - - 24 13 46 25 WNW 1015,8 70 48 0,0
17.01.2020 13:00:00 7,9 3,8 - - 24 13 - - W 1015,0 10 30 0,0
17.01.2020 12:00:00 8,2 3,7 - - 31 17 48 26 W 1014,2 10 48 0,0
17.01.2020 11:00:00 7,4 3,8 - - 34 18 52 28 W 1013,7 10 18 0,0
17.01.2020 10:00:00 7,7 4,1 - - 34 18 50 27 W 1011,9 10 42 0,0
17.01.2020 09:00:00 7,8 5,7 8,7 8,7 22 12 - - WZW 1010,1 10 0 0,0
17.01.2020 08:00:00 8,4 6,3 - - 21 11 - - WZW 1009,2 6 0 0,6
17.01.2020 07:00:00 9,3 6,6 - - 21 11 - - ZW 1008,3 10 0 0,0
17.01.2020 06:00:00 9,3 7,5 - - 18 10 - - ZZW 1008,1 10 0 0,0
17.01.2020 05:00:00 8,7 7,5 - - 15 8 55 30 ZZW 1008,0 22 0 1,2
17.01.2020 04:00:00 10,0 8,7 - - 22 12 - - ZZW 1007,7 11 0 4,2
17.01.2020 03:00:00 9,1 7,5 - - 21 11 52 28 ZW 1008,5 4,2 0 0,8
17.01.2020 02:00:00 10,8 9,5 - - 18 10 - - ZZW 1008,7 12 0 0,2
17.01.2020 01:00:00 10,7 9,6 - - 18 10 - - ZZW 1008,9 12 0 0,0
17.01.2020 00:00:00 10,9 9,8 - - 16 9 - - ZZW 1009,1 10 - 0,0
16.01.2020 23:00:00 10,9 9,8 - - 15 8 - - ZZW 1009,4 10 0 0,0
16.01.2020 22:00:00 11,1 9,9 - - 18 10 - - ZZW 1009,6 8 0 0,0
16.01.2020 21:00:00 11,4 9,9 - - 21 11 - - ZZW 1009,5 9 0 0,0
16.01.2020 20:00:00 11,2 10,4 - - 22 12 55 30 ZZW 1008,8 8 0 2,4
16.01.2020 19:00:00 11,3 10,2 - - 34 18 54 29 Z 1008,5 4,5 0 2,2
16.01.2020 18:00:00 11,8 9,7 - - 34 18 61 33 Z 1008,4 4,3 0 0,4
16.01.2020 17:00:00 12,5 8,9 - - 39 21 61 33 Z 1008,1 19 0 0,0
16.01.2020 16:00:00 12,0 8,9 - - 29 16 54 29 Z 1008,2 14 0 0,2
16.01.2020 15:00:00 11,5 8,3 - - 34 18 52 28 Z 1009,2 10 0 0,6
16.01.2020 14:00:00 10,9 8,4 - - 26 14 - - Z 1010,0 10 0 0,8
16.01.2020 13:00:00 10,9 7,8 - - 28 15 - - Z 1010,9 10 0 0,0
16.01.2020 12:00:00 10,4 8,0 - - 26 14 46 25 ZZO 1011,9 12 0 0,2
16.01.2020 11:00:00 10,4 7,6 - - 28 15 46 25 Z 1013,5 22 0 0,0
16.01.2020 10:00:00 9,8 7,6 - - 28 15 - - Z 1014,0 10 12 0,0
16.01.2020 09:00:00 9,4 7,5 8,5 8,7 22 12 - - ZZO 1015,0 21 0 0,0
16.01.2020 08:00:00 9,1 7,1 - - 21 11 - - Z 1015,4 22 0 0,0
16.01.2020 07:00:00 9,1 6,6 - - 22 12 - - ZZO 1016,1 10 0 0,0
16.01.2020 06:00:00 9,3 6,7 - - 24 13 - - Z 1016,7 20 0 0,0
16.01.2020 05:00:00 9,1 6,4 - - 22 12 - - Z 1017,5 19 0 0,0
16.01.2020 04:00:00 9,4 6,3 - - 26 14 - - Z 1018,0 23 0 0,0
16.01.2020 03:00:00 9,3 6,6 - - 21 11 - - ZZW 1018,5 20 0 0,0
16.01.2020 02:00:00 9,4 6,7 - - 18 10 - - ZZW 1018,5 19 0 0,0
16.01.2020 01:00:00 9,1 6,4 - - 21 11 - - ZZW 1018,6 19 0 0,0
16.01.2020 00:00:00 9,5 6,7 - - 21 11 - - ZZW 1018,1 19 - 0,0
15.01.2020 23:00:00 9,0 5,8 - - 16 9 - - ZZW 1017,9 22 0 0,0
15.01.2020 22:00:00 8,8 5,4 - - 15 8 - - ZZW 1017,5 23 0 0,0
15.01.2020 21:00:00 8,2 5,3 - - 15 8 - - ZZW 1017,2 10 0 0,0
15.01.2020 20:00:00 7,8 4,9 - - 16 9 - - ZW 1016,7 10 0 0,4
15.01.2020 19:00:00 8,3 4,6 - - 16 9 - - ZW 1016,0 10 0 0,0
15.01.2020 18:00:00 8,3 4,1 - - 18 10 - - WZW 1014,7 10 0 0,0
15.01.2020 17:00:00 8,6 4,1 - - 22 12 - - WZW 1013,6 10 0 0,0
15.01.2020 16:00:00 9,6 4,1 - - 18 10 - - W 1012,2 10 30 0,0
15.01.2020 15:00:00 10,1 3,5 - - 21 11 - - WZW 1010,9 10 60 0,0
15.01.2020 14:00:00 10,2 3,5 - - 31 17 - - WZW 1009,9 10 54 0,0
15.01.2020 13:00:00 10,6 6,1 - - 18 10 - - WZW 1008,6 10 42 0,0
15.01.2020 12:00:00 10,3 7,6 - - 18 10 - - ZW 1007,8 10 36 0,0
15.01.2020 11:00:00 8,7 7,5 - - 13 7 - - ZW 1006,9 10 0 0,0
15.01.2020 10:00:00 7,5 6,0 - - 11 6 - - ZW 1005,6 29 0 0,0
15.01.2020 09:00:00 6,9 5,5 9,0 8,7 4 2 - - ZZW 1004,1 10 0 0,2
15.01.2020 08:00:00 6,7 5,1 - - 5 3 - - ZZW 1003,2 9 0 1,4
15.01.2020 07:00:00 6,9 4,6 - - 22 12 - - WNW 1002,4 6 0 1,4
15.01.2020 06:00:00 7,7 7,2 - - 11 6 - - W 1001,5 28 0 0,8
15.01.2020 05:00:00 8,1 7,7 - - 9 5 - - W 1000,7 13 0 1,6
15.01.2020 04:00:00 8,7 8,2 - - 4 2 - - NNW 999,6 5 0 1,0
15.01.2020 03:00:00 9,2 8,5 - - 15 8 46 25 WNW 999,5 9 0 1,2
15.01.2020 02:00:00 11,9 10,9 - - 37 20 74 40 ZW 998,0 1,8 0 0,6
15.01.2020 01:00:00 11,7 10,9 - - 37 20 72 39 ZZW 997,0 4,6 0 0,4
15.01.2020 00:00:00 11,6 10,8 - - 48 26 94 51 ZZW 996,3 2,8 - 1,2
14.01.2020 23:00:00 11,6 11,1 - - 44 24 72 39 ZZW 996,2 1,8 0 5,4
14.01.2020 22:00:00 11,8 11,1 - - 34 18 59 32 ZW 996,6 2,6 0 5,0
14.01.2020 21:00:00 11,4 10,9 - - 34 18 72 39 ZW 996,3 1,3 0 1,8
14.01.2020 20:00:00 12,0 11,3 - - 46 25 76 41 ZZW 995,4 1,5 0 1,0
14.01.2020 19:00:00 12,0 11,4 - - 44 24 74 40 ZZW 995,0 3,0 0 1,0
14.01.2020 18:00:00 12,2 11,8 - - 46 25 74 40 ZZW 994,7 2,4 0 1,0
14.01.2020 17:00:00 12,5 11,8 - - 46 25 76 41 ZZW 994,1 2,5 0 0,6
14.01.2020 16:00:00 12,6 12,0 - - 44 24 78 42 ZZW 993,7 1,6 0 0,4
14.01.2020 15:00:00 12,7 12,0 - - 42 23 78 42 ZZW 993,6 1,6 0 0,2
14.01.2020 14:00:00 12,7 11,9 - - 44 24 67 36 ZZW 993,4 5 0 0,2
14.01.2020 13:00:00 11,9 11,4 - - 39 21 68 37 ZZW 993,5 2,3 0 0,4
14.01.2020 12:00:00 10,9 10,4 - - 42 23 63 34 Z 994,0 1,6 0 1,6
14.01.2020 11:00:00 10,5 9,6 - - 31 17 46 25 Z 996,1 6 0 0,4
14.01.2020 10:00:00 10,1 8,8 - - 29 16 - - ZZW 997,3 4,0 0 0,6
14.01.2020 09:00:00 10,2 8,8 8,2 8,7 22 12 - - ZZW 998,2 6 0 0,0
14.01.2020 08:00:00 9,6 7,2 - - 21 11 - - ZZW 998,3 13 0 0,0
14.01.2020 07:00:00 9,1 7,5 - - 18 10 - - ZZW 998,4 12 0 0,0
14.01.2020 06:00:00 8,0 6,6 - - 15 8 - - ZW 998,6 20 0 1,0
14.01.2020 05:00:00 8,0 5,0 - - 15 8 - - ZW 998,6 23 0 0,2
14.01.2020 04:00:00 9,0 5,6 - - 18 10 - - WZW 998,1 7 0 0,0
14.01.2020 03:00:00 9,4 6,9 - - 18 10 - - WZW 998,0 11 0 0,0
14.01.2020 02:00:00 9,7 7,0 - - 18 10 - - ZW 997,5 11 0 0,0
14.01.2020 01:00:00 9,5 6,9 - - 24 13 46 25 WZW 997,6 13 0 0,0
14.01.2020 00:00:00 9,3 7,3 - - 22 12 94 51 ZW 997,7 19 - 0,0
13.01.2020 23:00:00 8,5 7,1 - - 16 9 - - ZW 997,5 21 0 0,2
13.01.2020 22:00:00 8,2 7,3 - - 15 8 - - ZW 997,7 7 0 0,4
13.01.2020 21:00:00 8,1 7,5 - - 24 13 - - W 997,5 1,9 0 2,0
13.01.2020 20:00:00 9,4 8,5 - - 29 16 70 38 WZW 997,0 7 0 3,0
13.01.2020 19:00:00 10,7 9,9 - - 42 23 74 40 ZZW 996,5 6 0 0,4
13.01.2020 18:00:00 10,6 9,7 - - 42 23 74 40 ZZW 997,2 7 0 1,8
13.01.2020 17:00:00 10,3 8,7 - - 41 22 61 33 ZZW 998,6 4,0 0 0,8
13.01.2020 16:00:00 10,7 7,7 - - 37 20 57 31 Z 1000,1 10 0 0,0
13.01.2020 15:00:00 9,9 8,2 - - 37 20 57 31 Z 1002,0 10 0 0,4
13.01.2020 14:00:00 9,8 7,7 - - 37 20 57 31 Z 1003,7 5 0 0,0
13.01.2020 13:00:00 10,0 7,5 - - 39 21 57 31 Z 1005,6 10 0 0,0
13.01.2020 12:00:00 9,5 7,8 - - 34 18 52 28 ZZW 1007,9 5 0 0,2
13.01.2020 11:00:00 9,8 7,2 - - 34 18 55 30 Z 1009,6 19 0 0,0
13.01.2020 10:00:00 9,7 7,0 - - 28 15 - - Z 1011,2 10 6 0,0
13.01.2020 09:00:00 9,3 6,8 8,2 8,7 24 13 - - ZZW 1012,1 10 0 0,0
13.01.2020 08:00:00 9,1 6,8 - - 24 13 - - ZZW 1013,2 10 0 0,0
13.01.2020 07:00:00 8,5 6,7 - - 15 8 - - ZZW 1014,1 18 0 0,2
13.01.2020 06:00:00 8,6 6,9 - - 18 10 - - ZZW 1014,8 20 0 0,0
13.01.2020 05:00:00 8,5 6,8 - - 11 6 - - ZZW 1015,7 24 0 0,0
13.01.2020 04:00:00 7,6 6,1 - - 11 6 - - ZZW 1016,9 25 0 0,0
13.01.2020 03:00:00 7,4 5,9 - - 9 5 - - ZZW 1017,6 23 0 0,0
13.01.2020 02:00:00 7,8 6,2 - - 21 11 - - ZZW 1018,4 40 0 1,0
13.01.2020 01:00:00 8,2 5,9 - - 16 9 - - ZW 1019,3 25 0 0,4
13.01.2020 00:00:00 7,8 5,9 - - 11 6 - - ZW 1020,3 21 - 0,2
12.01.2020 23:00:00 7,0 4,9 - - 11 6 - - ZZW 1020,7 20 0 0,0
12.01.2020 22:00:00 5,7 5,3 - - 9 5 - - ZZW 1021,1 10 0 0,0
12.01.2020 21:00:00 3,7 2,9 - - 2 1 - - ZW 1021,3 10 0 0,0
12.01.2020 20:00:00 4,4 3,1 - - 5 3 - - ZW 1021,6 10 0 0,0
12.01.2020 19:00:00 5,3 3,9 - - 5 3 - - WZW 1021,5 10 0 0,0
12.01.2020 18:00:00 7,5 5,1 - - 9 5 - - ZW 1021,5 10 0 0,0
12.01.2020 17:00:00 7,2 4,0 - - 11 6 - - WZW 1021,4 40 0 0,0
12.01.2020 16:00:00 9,2 5,4 - - 13 7 - - W 1021,2 10 30 0,0
12.01.2020 15:00:00 9,8 6,2 - - 16 9 - - WNW 1020,9 10 6 0,0
12.01.2020 14:00:00 10,1 6,4 - - 16 9 - - WNW 1020,5 10 0 0,0
12.01.2020 13:00:00 11,1 6,3 - - 29 16 48 26 W 1020,1 10 36 0,0
12.01.2020 12:00:00 10,7 7,3 - - 29 16 52 28 W 1020,0 10 36 0,0
12.01.2020 11:00:00 11,3 7,4 - - 31 17 46 25 WZW 1019,5 10 54 0,0
12.01.2020 10:00:00 10,6 8,3 - - 26 14 - - WZW 1018,9 10 42 0,0

tt = temperatuur
td = dauwpunt
tt -20cm = temperatuur -20cm
tt -100cm = temperatuur -100cm
ff = windsnelheid
fx = windstoten
dd = windrichting
ppp = luchtdruk
vv = zicht
sd = Zonneschijnduur
rr = neerslag

Weerstations in de omgeving